| time (UTC) | temp F | wind direction | speed knots | gust knots | rain 1hr in | rain 24hr in | rain mn in | humidity % | barometer mb |
| 20260510211027 | 52 | 136 | 0.9 | 1.7 | 0.00 | 0.45 | 0.45 | 95 | 1014.6 |
| 20260510210531 | 52 | 291 | 0.0 | 0.0 | 0.00 | 0.45 | 0.45 | 95 | 1014.5 |
| 20260510210108 | 52 | 291 | 0.0 | 0.0 | 0.00 | 0.45 | 0.45 | 95 | 1014.5 |
| 20260510205526 | 52 | 291 | 0.0 | 0.0 | 0.00 | 0.45 | 0.45 | 94 | 1014.5 |
| 20260510205042 | 52 | 291 | 0.0 | 0.0 | 0.00 | 0.45 | 0.45 | 94 | 1014.4 |
| 20260510204542 | 52 | 291 | 0.0 | 0.0 | 0.00 | 0.45 | 0.45 | 94 | 1014.4 |
| 20260510204042 | 52 | 291 | 0.0 | 0.0 | 0.00 | 0.45 | 0.45 | 94 | 1014.4 |
| 20260510203546 | 52 | 291 | 0.0 | 0.0 | 0.00 | 0.45 | 0.45 | 94 | 1014.4 |
| 20260510203025 | 52 | 291 | 0.0 | 0.0 | 0.00 | 0.45 | 0.45 | 95 | 1014.4 |
| 20260510202536 | 52 | 291 | 0.0 | 0.0 | 0.00 | 0.45 | 0.45 | 94 | 1014.2 |
| 20260510202104 | 52 | 291 | 0.0 | 0.0 | 0.00 | 0.45 | 0.45 | 94 | 1014.2 |
| 20260510201537 | 53 | 291 | 0.0 | 0.0 | 0.00 | 0.45 | 0.45 | 94 | 1014.2 |
| 20260510201020 | 53 | 291 | 0.0 | 0.0 | 0.00 | 0.45 | 0.45 | 94 | 1014.0 |
| 20260510200543 | 53 | 291 | 0.0 | 3.5 | 0.00 | 0.45 | 0.45 | 94 | 1014.0 |
| 20260510200106 | 53 | 291 | 1.7 | 3.5 | 0.00 | 0.45 | 0.45 | 94 | 1014.0 |
| 20260510195546 | 53 | 284 | 1.7 | 3.5 | 0.00 | 0.45 | 0.45 | 93 | 1014.0 |
| 20260510195037 | 53 | 222 | 0.0 | 1.7 | 0.00 | 0.45 | 0.45 | 93 | 1013.8 |
| 20260510194545 | 53 | 226 | 0.0 | 2.6 | 0.00 | 0.45 | 0.45 | 93 | 1013.8 |
| 20260510194023 | 53 | 171 | 0.9 | 3.5 | 0.00 | 0.45 | 0.45 | 93 | 1013.7 |
| 20260510193608 | 53 | 162 | 0.0 | 3.5 | 0.00 | 0.45 | 0.45 | 93 | 1013.7 |
| 20260510193029 | 53 | 160 | 0.9 | 2.6 | 0.00 | 0.45 | 0.45 | 93 | 1013.5 |
| 20260510192540 | 53 | 165 | 0.9 | 2.6 | 0.00 | 0.45 | 0.45 | 92 | 1014.4 |
| 20260510192045 | 53 | 212 | 0.0 | 0.9 | 0.00 | 0.45 | 0.45 | 92 | 1014.4 |
| 20260510191527 | 53 | 212 | 0.0 | 0.9 | 0.00 | 0.45 | 0.45 | 92 | 1014.3 |
| 20260510191022 | 53 | 153 | 0.0 | 0.9 | 0.00 | 0.45 | 0.45 | 92 | 1014.3 |
| 20260510190534 | 53 | 192 | 0.0 | 0.0 | 0.00 | 0.45 | 0.45 | 91 | 1014.3 |
| 20260510190045 | 54 | 226 | 0.0 | 0.9 | 0.00 | 0.45 | 0.45 | 91 | 1014.3 |
| 20260510185532 | 54 | 246 | 0.0 | 0.9 | 0.00 | 0.45 | 0.45 | 91 | 1014.3 |
| 20260510185041 | 54 | 206 | 0.0 | 0.0 | 0.00 | 0.45 | 0.45 | 91 | 1014.2 |
| 20260510184544 | 54 | 167 | 0.0 | 3.5 | 0.00 | 0.45 | 0.45 | 91 | 1014.1 |
| 20260510184022 | 54 | 236 | 0.0 | 3.5 | 0.00 | 0.45 | 0.45 | 90 | 1014.1 |
| 20260510183533 | 54 | 212 | 0.0 | 3.5 | 0.00 | 0.45 | 0.45 | 90 | 1014.1 |
| 20260510183046 | 54 | 259 | 0.0 | 3.5 | 0.00 | 0.45 | 0.45 | 90 | 1014.1 |
| 20260510182546 | 55 | 206 | 0.0 | 4.3 | 0.00 | 0.45 | 0.45 | 90 | 1014.2 |
| 20260510182020 | 55 | 233 | 0.9 | 5.2 | 0.01 | 0.45 | 0.45 | 89 | 1014.2 |
| 20260510181538 | 55 | 191 | 3.5 | 6.1 | 0.01 | 0.45 | 0.45 | 89 | 1014.1 |
| 20260510180546 | 55 | 219 | 0.9 | 7.0 | 0.02 | 0.45 | 0.45 | 91 | 1014.0 |
| 20260510180108 | 55 | 251 | 3.5 | 7.0 | 0.02 | 0.45 | 0.45 | 91 | 1013.9 |
| 20260510175527 | 54 | 215 | 5.2 | 7.0 | 0.02 | 0.45 | 0.45 | 91 | 1013.8 |
| 20260510175033 | 53 | 227 | 4.3 | 7.0 | 0.02 | 0.45 | 0.45 | 91 | 1013.8 |
| 20260510174528 | 53 | 260 | 3.5 | 7.0 | 0.02 | 0.45 | 0.45 | 92 | 1013.6 |
| 20260510174029 | 53 | 273 | 4.3 | 7.8 | 0.02 | 0.45 | 0.45 | 93 | 1013.6 |
| 20260510173546 | 53 | 250 | 4.3 | 8.7 | 0.02 | 0.45 | 0.45 | 92 | 1013.7 |
| 20260510173031 | 53 | 218 | 6.1 | 9.6 | 0.02 | 0.45 | 0.45 | 93 | 1013.9 |
| 20260510172546 | 53 | 236 | 2.6 | 10.4 | 0.02 | 0.45 | 0.45 | 94 | 1013.9 |
| 20260510172101 | 53 | 280 | 5.2 | 10.4 | 0.02 | 0.44 | 0.44 | 95 | 1014.1 |
| 20260510171523 | 53 | 246 | 7.8 | 11.3 | 0.02 | 0.44 | 0.44 | 96 | 1014.1 |
| 20260510171044 | 53 | 217 | 7.8 | 12.2 | 0.01 | 0.43 | 0.43 | 97 | 1014.2 |
| 20260510170531 | 53 | 256 | 8.7 | 12.2 | 0.02 | 0.43 | 0.43 | 97 | 1014.1 |
| 20260510170046 | 53 | 293 | 6.1 | 8.7 | 0.02 | 0.43 | 0.43 | 97 | 1014.0 |
| 20260510165544 | 53 | 262 | 4.3 | 9.6 | 0.03 | 0.43 | 0.43 | 97 | 1013.9 |
| 20260510165023 | 53 | 262 | 5.2 | 9.6 | 0.04 | 0.43 | 0.43 | 97 | 1013.9 |
| 20260510164551 | 52 | 236 | 6.1 | 10.4 | 0.06 | 0.43 | 0.43 | 97 | 1013.9 |
| 20260510164105 | 52 | 228 | 5.2 | 10.4 | 0.06 | 0.43 | 0.43 | 96 | 1014.0 |
| 20260510163546 | 52 | 236 | 6.1 | 9.6 | 0.07 | 0.43 | 0.43 | 96 | 1013.9 |
| 20260510163102 | 52 | 256 | 4.3 | 9.6 | 0.08 | 0.43 | 0.43 | 96 | 1013.9 |
| 20260510162546 | 52 | 246 | 5.2 | 9.6 | 0.09 | 0.43 | 0.43 | 96 | 1013.9 |
| 20260510162032 | 52 | 240 | 4.3 | 11.3 | 0.13 | 0.44 | 0.43 | 96 | 1013.8 |
| 20260510161608 | 52 | 245 | 6.1 | 11.3 | 0.15 | 0.44 | 0.43 | 96 | 1013.9 |
| 20260510161024 | 52 | 272 | 8.7 | 13.0 | 0.15 | 0.44 | 0.43 | 96 | 1013.8 |
| 20260510160535 | 53 | 256 | 7.8 | 13.0 | 0.14 | 0.43 | 0.42 | 96 | 1013.7 |
| 20260510160052 | 53 | 284 | 7.0 | 10.4 | 0.14 | 0.43 | 0.42 | 95 | 1013.6 |
| 20260510155543 | 53 | 258 | 6.1 | 12.2 | 0.13 | 0.42 | 0.40 | 95 | 1013.6 |
| 20260510154533 | 54 | 294 | 7.0 | 9.6 | 0.10 | 0.39 | 0.38 | 94 | 1013.6 |
| 20260510154045 | 54 | 278 | 6.1 | 9.6 | 0.09 | 0.38 | 0.36 | 93 | 1013.3 |
| 20260510153533 | 54 | 291 | 7.8 | 10.4 | 0.08 | 0.37 | 0.35 | 92 | 1013.5 |
| 20260510153042 | 55 | 283 | 8.7 | 11.3 | 0.08 | 0.37 | 0.35 | 91 | 1013.4 |
| 20260510152540 | 55 | 288 | 7.0 | 12.2 | 0.06 | 0.35 | 0.33 | 89 | 1013.3 |
| 20260510152045 | 56 | 278 | 8.7 | 12.2 | 0.02 | 0.31 | 0.30 | 88 | 1013.2 |
| 20260510151546 | 57 | 281 | 5.2 | 8.7 | 0.01 | 0.30 | 0.28 | 84 | 1013.1 |
| 20260510151023 | 57 | 268 | 6.1 | 8.7 | 0.00 | 0.29 | 0.28 | 83 | 1013.0 |
| 20260510150521 | 58 | 288 | 6.1 | 8.7 | 0.00 | 0.29 | 0.28 | 82 | 1013.1 |
| 20260510150050 | 57 | 266 | 5.2 | 9.6 | 0.00 | 0.29 | 0.28 | 82 | 1013.1 |
| 20260510145544 | 57 | 269 | 7.0 | 10.4 | 0.00 | 0.29 | 0.28 | 81 | 1013.2 |
| 20260510145021 | 57 | 271 | 7.8 | 11.3 | 0.00 | 0.29 | 0.28 | 80 | 1013.2 |
| 20260510144537 | 58 | 276 | 7.0 | 11.3 | 0.00 | 0.29 | 0.28 | 82 | 1013.3 |
| 20260510144024 | 58 | 280 | 7.0 | 10.4 | 0.01 | 0.29 | 0.28 | 82 | 1013.4 |
| 20260510143530 | 58 | 256 | 7.0 | 9.6 | 0.01 | 0.29 | 0.28 | 84 | 1013.4 |
| 20260510143056 | 57 | 247 | 6.1 | 10.4 | 0.02 | 0.29 | 0.28 | 84 | 1013.2 |
| 20260510142524 | 57 | 280 | 6.1 | 12.2 | 0.02 | 0.29 | 0.28 | 84 | 1013.4 |
| 20260510142023 | 56 | 239 | 8.7 | 10.4 | 0.02 | 0.35 | 0.28 | 85 | 1013.5 |
| 20260510141535 | 56 | 278 | 7.0 | 13.0 | 0.02 | 0.35 | 0.28 | 90 | 1013.6 |
| 20260510141034 | 55 | 250 | 8.7 | 15.6 | 0.03 | 0.35 | 0.28 | 90 | 1013.8 |
| 20260510140531 | 54 | 241 | 7.8 | 15.6 | 0.04 | 0.35 | 0.28 | 90 | 1014.0 |
| 20260510140101 | 54 | 266 | 7.0 | 12.2 | 0.04 | 0.35 | 0.28 | 92 | 1014.2 |
| 20260510135543 | 54 | 266 | 7.8 | 12.2 | 0.04 | 0.35 | 0.28 | 92 | 1014.1 |
| 20260510135041 | 54 | 261 | 6.1 | 11.3 | 0.04 | 0.35 | 0.28 | 94 | 1014.0 |
| 20260510134550 | 54 | 274 | 7.0 | 13.9 | 0.05 | 0.35 | 0.28 | 93 | 1013.9 |
| 20260510134038 | 53 | 273 | 8.7 | 13.9 | 0.06 | 0.35 | 0.27 | 93 | 1014.1 |
| 20260510133542 | 53 | 264 | 10.4 | 13.0 | 0.09 | 0.35 | 0.27 | 92 | 1014.1 |
| 20260510133107 | 54 | 246 | 8.7 | 11.3 | 0.10 | 0.34 | 0.26 | 93 | 1014.0 |
| 20260510132530 | 53 | 222 | 9.6 | 14.8 | 0.10 | 0.34 | 0.26 | 92 | 1013.9 |
| 20260510132030 | 53 | 235 | 11.3 | 15.6 | 0.10 | 0.34 | 0.26 | 92 | 1013.9 |
| 20260510131607 | 53 | 250 | 12.2 | 17.4 | 0.10 | 0.34 | 0.26 | 92 | 1013.9 |
| 20260510131028 | 53 | 263 | 10.4 | 17.4 | 0.09 | 0.32 | 0.24 | 91 | 1013.9 |
| 20260510130605 | 53 | 249 | 13.0 | 14.8 | 0.08 | 0.31 | 0.24 | 92 | 1013.8 |
| 20260510130108 | 53 | 264 | 10.4 | 16.5 | 0.08 | 0.31 | 0.24 | 93 | 1013.7 |
| 20260510125623 | 53 | 247 | 9.6 | 16.5 | 0.08 | 0.31 | 0.24 | 93 | 1013.5 |
| 20260510125549 | 53 | 247 | 9.6 | 16.5 | 0.08 | 0.31 | 0.24 | 93 | 1013.5 |
| 20260510125040 | 53 | 260 | 8.7 | 12.2 | 0.08 | 0.31 | 0.24 | 93 | 1013.5 |
| 20260510124540 | 53 | 281 | 7.8 | 12.2 | 0.07 | 0.31 | 0.23 | 91 | 1013.5 |
| 20260510124027 | 53 | 269 | 10.4 | 15.6 | 0.06 | 0.29 | 0.21 | 89 | 1013.6 |
| 20260510123544 | 54 | 274 | 8.7 | 19.1 | 0.02 | 0.25 | 0.17 | 85 | 1013.5 |
| 20260510123048 | 58 | 288 | 15.6 | 19.1 | 0.02 | 0.24 | 0.16 | 83 | 1013.6 |
| 20260510122554 | 58 | 165 | 7.8 | 12.2 | 0.02 | 0.24 | 0.16 | 86 | 1013.0 |
| 20260510122041 | 58 | 233 | 4.3 | 12.2 | 0.02 | 0.24 | 0.16 | 86 | 1012.9 |
| 20260510121528 | 57 | 98 | 6.1 | 12.2 | 0.04 | 0.24 | 0.16 | 87 | 1013.0 |
| 20260510121039 | 57 | 179 | 6.1 | 12.2 | 0.05 | 0.24 | 0.16 | 89 | 1013.1 |
| 20260510120531 | 56 | 214 | 5.2 | 12.2 | 0.05 | 0.24 | 0.16 | 90 | 1013.2 |
| 20260510120056 | 56 | 226 | 4.3 | 11.3 | 0.06 | 0.24 | 0.16 | 92 | 1013.4 |
| 20260510115529 | 55 | 224 | 7.0 | 11.3 | 0.06 | 0.24 | 0.16 | 90 | 1013.5 |
| 20260510115038 | 55 | 280 | 7.8 | 13.0 | 0.06 | 0.24 | 0.16 | 90 | 1013.5 |
| 20260510114545 | 55 | 238 | 7.8 | 13.0 | 0.06 | 0.24 | 0.16 | 89 | 1013.6 |
| 20260510114043 | 55 | 248 | 7.0 | 11.3 | 0.05 | 0.23 | 0.15 | 89 | 1013.7 |
| 20260510113537 | 56 | 231 | 2.6 | 11.3 | 0.06 | 0.23 | 0.15 | 89 | 1013.7 |
| 20260510113041 | 56 | 243 | 6.1 | 7.0 | 0.05 | 0.22 | 0.14 | 90 | 1013.8 |
| 20260510112522 | 56 | 245 | 4.3 | 10.4 | 0.05 | 0.22 | 0.14 | 89 | 1013.8 |
| 20260510112023 | 56 | 253 | 7.0 | 10.4 | 0.04 | 0.21 | 0.13 | 87 | 1013.8 |
| 20260510111531 | 56 | 238 | 6.1 | 10.4 | 0.02 | 0.20 | 0.12 | 86 | 1013.9 |
| 20260510111038 | 56 | 224 | 7.0 | 12.2 | 0.02 | 0.19 | 0.11 | 86 | 1013.8 |
| 20260510110540 | 57 | 205 | 7.0 | 12.2 | 0.02 | 0.19 | 0.11 | 85 | 1013.7 |
| 20260510110109 | 57 | 154 | 6.1 | 13.0 | 0.02 | 0.18 | 0.10 | 85 | 1013.8 |
| 20260510105530 | 57 | 205 | 4.3 | 13.0 | 0.02 | 0.18 | 0.10 | 85 | 1013.8 |
| 20260510105041 | 57 | 236 | 7.8 | 13.0 | 0.02 | 0.18 | 0.10 | 86 | 1013.8 |
| 20260510104529 | 57 | 219 | 6.1 | 10.4 | 0.02 | 0.18 | 0.10 | 86 | 1013.8 |
| 20260510104035 | 57 | 211 | 6.1 | 12.2 | 0.02 | 0.18 | 0.10 | 86 | 1013.8 |
| 20260510103531 | 57 | 158 | 7.8 | 12.2 | 0.01 | 0.17 | 0.09 | 86 | 1013.8 |
| 20260510103032 | 57 | 224 | 5.2 | 11.3 | 0.01 | 0.17 | 0.09 | 86 | 1013.8 |
| 20260510102606 | 57 | 201 | 7.0 | 13.9 | 0.01 | 0.17 | 0.09 | 85 | 1013.9 |
| 20260510102043 | 57 | 210 | 7.0 | 13.9 | 0.01 | 0.17 | 0.09 | 83 | 1013.9 |
| 20260510101543 | 57 | 210 | 8.7 | 12.2 | 0.01 | 0.17 | 0.09 | 81 | 1014.0 |
| 20260510101043 | 57 | 215 | 5.2 | 11.3 | 0.01 | 0.17 | 0.09 | 80 | 1013.9 |
| 20260510100530 | 58 | 210 | 5.2 | 14.8 | 0.01 | 0.17 | 0.09 | 78 | 1013.8 |
| 20260510100048 | 59 | 212 | 10.4 | 14.8 | 0.01 | 0.17 | 0.09 | 75 | 1013.7 |
| 20260510095529 | 59 | 226 | 6.1 | 12.2 | 0.00 | 0.17 | 0.09 | 74 | 1013.7 |
| 20260510095020 | 59 | 219 | 8.7 | 12.2 | 0.00 | 0.17 | 0.09 | 73 | 1013.6 |
| 20260510094539 | 59 | 179 | 4.3 | 12.2 | 0.00 | 0.17 | 0.09 | 74 | 1013.6 |
| 20260510094021 | 58 | 161 | 7.0 | 12.2 | 0.00 | 0.17 | 0.09 | 75 | 1013.7 |
| 20260510093528 | 58 | 203 | 8.7 | 13.9 | 0.00 | 0.17 | 0.09 | 76 | 1013.7 |
| 20260510093100 | 58 | 203 | 9.6 | 16.5 | 0.00 | 0.17 | 0.09 | 75 | 1013.7 |
| 20260510092520 | 58 | 217 | 6.1 | 16.5 | 0.00 | 0.17 | 0.09 | 75 | 1013.7 |
| 20260510092028 | 59 | 242 | 7.8 | 13.9 | 0.00 | 0.17 | 0.09 | 73 | 1013.6 |
| 20260510091543 | 59 | 253 | 6.1 | 14.8 | 0.00 | 0.17 | 0.09 | 74 | 1013.6 |
| 20260510091045 | 58 | 154 | 7.8 | 15.6 | 0.00 | 0.17 | 0.09 | 73 | 1013.5 |
| 20260510090545 | 59 | 179 | 7.0 | 15.6 | 0.00 | 0.17 | 0.09 | 73 | 1013.5 |
| 20260510090107 | 59 | 222 | 7.0 | 16.5 | 0.00 | 0.17 | 0.09 | 74 | 1013.5 |
| 20260510085542 | 59 | 248 | 9.6 | 16.5 | 0.00 | 0.17 | 0.09 | 73 | 1013.4 |
| 20260510085042 | 59 | 167 | 8.7 | 16.5 | 0.00 | 0.17 | 0.09 | 73 | 1013.4 |
| 20260510084523 | 59 | 155 | 9.6 | 14.8 | 0.00 | 0.17 | 0.09 | 73 | 1013.4 |
| 20260510084021 | 59 | 201 | 7.8 | 14.8 | 0.00 | 0.17 | 0.09 | 75 | 1013.3 |
| 20260510083523 | 59 | 311 | 7.0 | 14.8 | 0.00 | 0.17 | 0.09 | 79 | 1013.3 |
| 20260510083028 | 58 | 261 | 4.3 | 10.4 | 0.00 | 0.17 | 0.09 | 81 | 1013.4 |
| 20260510082540 | 58 | 211 | 4.3 | 13.0 | 0.00 | 0.17 | 0.09 | 80 | 1013.4 |
| 20260510082053 | 58 | 207 | 8.7 | 13.0 | 0.00 | 0.19 | 0.09 | 79 | 1013.5 |
| 20260510081537 | 58 | 181 | 7.0 | 13.0 | 0.00 | 0.19 | 0.09 | 79 | 1013.6 |
| 20260510081021 | 58 | 162 | 8.7 | 13.0 | 0.03 | 0.19 | 0.09 | 80 | 1013.5 |
| 20260510080543 | 58 | 192 | 1.7 | 13.9 | 0.03 | 0.19 | 0.09 | 83 | 1013.5 |
| 20260510080105 | 57 | 218 | 7.0 | 13.9 | 0.03 | 0.19 | 0.09 | 83 | 1013.4 |
| 20260510075521 | 57 | 187 | 5.2 | 11.3 | 0.03 | 0.19 | 0.09 | 85 | 1013.4 |
| 20260510075041 | 56 | 231 | 5.2 | 11.3 | 0.03 | 0.19 | 0.09 | 87 | 1013.4 |
| 20260510074546 | 55 | 166 | 7.0 | 9.6 | 0.03 | 0.19 | 0.09 | 88 | 1013.5 |
| 20260510074026 | 55 | 120 | 3.5 | 10.4 | 0.03 | 0.19 | 0.09 | 90 | 1013.5 |
| 20260510073525 | 55 | 146 | 6.1 | 10.4 | 0.03 | 0.19 | 0.09 | 91 | 1013.4 |
| 20260510073044 | 54 | 183 | 7.0 | 10.4 | 0.03 | 0.19 | 0.09 | 92 | 1013.5 |
| 20260510072530 | 53 | 231 | 7.0 | 11.3 | 0.03 | 0.19 | 0.09 | 92 | 1013.6 |
| 20260510072032 | 53 | 140 | 7.8 | 11.3 | 0.03 | 0.19 | 0.09 | 91 | 1013.6 |
| 20260510071520 | 53 | 205 | 7.0 | 11.3 | 0.04 | 0.19 | 0.09 | 91 | 1013.7 |
| 20260510071027 | 53 | 242 | 7.8 | 11.3 | 0.01 | 0.16 | 0.06 | 91 | 1013.7 |
| 20260510070554 | 53 | 211 | 4.3 | 12.2 | 0.01 | 0.16 | 0.06 | 91 | 1013.6 |
| 20260510070127 | 53 | 203 | 7.0 | 12.2 | 0.01 | 0.16 | 0.06 | 91 | 1013.5 |
| 20260510065541 | 53 | 158 | 3.5 | 10.4 | 0.01 | 0.16 | 0.06 | 92 | 1013.4 |
| 20260510065025 | 53 | 191 | 4.3 | 7.0 | 0.01 | 0.16 | 0.06 | 92 | 1013.4 |
| 20260510064541 | 53 | 99 | 4.3 | 7.0 | 0.01 | 0.16 | 0.06 | 93 | 1013.3 |
| 20260510064045 | 53 | 177 | 5.2 | 7.0 | 0.01 | 0.16 | 0.06 | 93 | 1013.4 |
| 20260510063538 | 53 | 85 | 3.5 | 7.0 | 0.01 | 0.16 | 0.06 | 93 | 1013.3 |
| 20260510063046 | 53 | 143 | 4.3 | 7.0 | 0.01 | 0.16 | 0.06 | 94 | 1013.3 |
| 20260510062539 | 53 | 198 | 2.6 | 7.8 | 0.01 | 0.16 | 0.06 | 94 | 1013.3 |
| 20260510062026 | 52 | 240 | 3.5 | 7.8 | 0.01 | 0.16 | 0.06 | 94 | 1013.3 |
| 20260510061528 | 0 | 0.0 | 0.0 | 0.00 | 0.15 | 0.05 | 1013.2 | ||
| 20260510061033 | 0 | 0.0 | 0.0 | 0.00 | 0.15 | 0.05 | 1013.1 | ||
| 20260510060540 | 0 | 0.0 | 0.0 | 0.01 | 0.15 | 0.05 | 1013.2 | ||
| 20260510060101 | 0 | 0.0 | 0.0 | 0.02 | 0.15 | 0.05 | 1013.2 | ||
| 20260510055527 | 0 | 0.0 | 0.0 | 0.02 | 0.15 | 0.05 | 1013.3 | ||
| 20260510055029 | 0 | 0.0 | 0.0 | 0.02 | 0.15 | 0.05 | 1013.3 | ||
| 20260510054519 | 0 | 0.0 | 0.0 | 0.02 | 0.15 | 0.05 | 1013.3 | ||
| 20260510054101 | 0 | 0.0 | 0.0 | 0.02 | 0.15 | 0.05 | 1013.3 | ||
| 20260510053545 | 51 | 224 | 0.0 | 0.0 | 0.03 | 0.15 | 0.05 | 93 | 1013.3 |
| 20260510053035 | 51 | 224 | 0.0 | 2.6 | 0.03 | 0.15 | 0.05 | 93 | 1013.3 |
| 20260510052523 | 51 | 224 | 0.9 | 3.5 | 0.03 | 0.15 | 0.05 | 94 | 1013.3 |
| 20260510052025 | 52 | 163 | 0.0 | 3.5 | 0.03 | 0.15 | 0.05 | 94 | 1013.2 |
| 20260510051541 | 52 | 246 | 0.0 | 2.6 | 0.04 | 0.15 | 0.05 | 93 | 1013.3 |
| 20260510051021 | 52 | 162 | 0.9 | 2.6 | 0.05 | 0.15 | 0.05 | 93 | 1013.2 |
| 20260510050522 | 52 | 196 | 1.7 | 2.6 | 0.05 | 0.15 | 0.05 | 93 | 1013.2 |
| 20260510050049 | 52 | 191 | 1.7 | 2.6 | 0.02 | 0.13 | 0.02 | 93 | 1013.2 |
| 20260510045528 | 52 | 153 | 0.0 | 3.5 | 0.02 | 0.13 | 0.02 | 93 | 1013.1 |
| 20260510045042 | 52 | 165 | 0.9 | 5.2 | 0.02 | 0.13 | 0.02 | 93 | 1013.2 |
| 20260510044537 | 52 | 249 | 0.9 | 5.2 | 0.02 | 0.13 | 0.02 | 92 | 1013.1 |
| 20260510044038 | 52 | 219 | 0.9 | 4.3 | 0.02 | 0.13 | 0.02 | 92 | 1013.2 |
| 20260510043526 | 52 | 181 | 1.7 | 7.0 | 0.02 | 0.12 | 0.02 | 92 | 1013.2 |
| 20260510043024 | 52 | 162 | 4.3 | 7.8 | 0.02 | 0.12 | 0.02 | 92 | 1013.1 |
| 20260510042525 | 52 | 224 | 3.5 | 8.7 | 0.02 | 0.12 | 0.02 | 92 | 1013.1 |
| 20260510042041 | 52 | 200 | 3.5 | 8.7 | 0.02 | 0.12 | 0.02 | 91 | 1013.2 |
| 20260510041543 | 52 | 210 | 3.5 | 5.2 | 0.01 | 0.11 | 0.01 | 91 | 1013.2 |
| 20260510041032 | 52 | 151 | 1.7 | 5.2 | 0.00 | 0.10 | 0.00 | 91 | 1013.2 |
| 20260510040520 | 52 | 169 | 0.9 | 2.6 | 0.00 | 0.10 | 0.00 | 90 | 1013.1 |
| 20260510040126 | 52 | 121 | 0.0 | 2.6 | 0.00 | 0.10 | 0.00 | 89 | 1013.1 |
| 20260510035525 | 52 | 139 | 0.9 | 2.6 | 0.00 | 0.10 | 0.00 | 89 | 1013.3 |
| 20260510035056 | 51 | 101 | 0.0 | 0.9 | 0.00 | 0.10 | 0.00 | 88 | 1013.3 |
| 20260510034523 | 51 | 96 | 0.0 | 0.0 | 0.00 | 0.10 | 0.00 | 88 | 1013.3 |
| 20260510034057 | 51 | 96 | 0.0 | 0.0 | 0.00 | 0.10 | 0.00 | 89 | 1013.4 |
| 20260510033543 | 51 | 96 | 0.0 | 0.9 | 0.00 | 0.10 | 0.00 | 88 | 1013.4 |
| 20260510033028 | 51 | 91 | 0.0 | 0.9 | 0.00 | 0.10 | 0.00 | 88 | 1013.3 |
| 20260510032537 | 51 | 100 | 0.0 | 0.9 | 0.00 | 0.10 | 0.00 | 88 | 1013.3 |
| 20260510032038 | 51 | 153 | 0.0 | 0.0 | 0.00 | 0.10 | 0.00 | 88 | 1013.4 |
| 20260510031531 | 51 | 153 | 0.0 | 0.0 | 0.00 | 0.10 | 0.00 | 87 | 1013.4 |
| 20260510031033 | 52 | 153 | 0.0 | 0.0 | 0.00 | 0.10 | 0.00 | 87 | 1013.4 |
| 20260510030522 | 52 | 154 | 0.0 | 0.0 | 0.00 | 0.10 | 0.00 | 87 | 1013.4 |
| 20260510030106 | 52 | 154 | 0.0 | 0.0 | 0.00 | 0.10 | 0.00 | 87 | 1013.4 |
| 20260510025544 | 51 | 154 | 0.0 | 0.0 | 0.00 | 0.10 | 0.00 | 88 | 1013.4 |
| 20260510025047 | 51 | 75 | 0.0 | 0.0 | 0.00 | 0.10 | 0.00 | 88 | 1013.4 |
| 20260510024536 | 51 | 75 | 0.0 | 0.0 | 0.00 | 0.10 | 0.00 | 88 | 1013.4 |
| 20260510024036 | 51 | 75 | 0.0 | 0.0 | 0.00 | 0.10 | 0.00 | 89 | 1013.5 |
| 20260510023542 | 50 | 75 | 0.0 | 0.0 | 0.00 | 0.10 | 0.00 | 89 | 1013.5 |
| 20260510023023 | 50 | 75 | 0.0 | 0.0 | 0.00 | 0.10 | 0.00 | 89 | 1013.6 |
| 20260510022536 | 50 | 75 | 0.0 | 0.0 | 0.00 | 0.10 | 0.00 | 89 | 1013.5 |
| 20260510022045 | 50 | 75 | 0.0 | 0.0 | 0.00 | 0.10 | 0.00 | 89 | 1013.6 |
| 20260510021522 | 50 | 75 | 0.0 | 0.0 | 0.00 | 0.10 | 0.00 | 89 | 1013.6 |
| 20260510021023 | 50 | 75 | 0.0 | 0.0 | 0.00 | 0.10 | 0.00 | 89 | 1013.7 |
| 20260510020531 | 50 | 75 | 0.0 | 0.0 | 0.00 | 0.10 | 0.00 | 88 | 1013.6 |
| 20260510020049 | 50 | 65 | 0.0 | 0.0 | 0.00 | 0.10 | 0.00 | 89 | 1013.7 |
| 20260510015543 | 50 | 6 | 0.0 | 0.0 | 0.00 | 0.10 | 0.00 | 89 | 1013.6 |
| 20260510015020 | 50 | 341 | 0.0 | 0.9 | 0.00 | 0.10 | 0.00 | 88 | 1013.6 |
| 20260510014520 | 50 | 8 | 0.0 | 2.6 | 0.00 | 0.10 | 0.00 | 88 | 1013.7 |
| 20260510014044 | 50 | 41 | 0.9 | 2.6 | 0.00 | 0.10 | 0.00 | 87 | 1013.6 |
| 20260510013521 | 50 | 41 | 0.0 | 0.0 | 0.00 | 0.10 | 0.00 | 86 | 1013.6 |
| 20260510013023 | 51 | 245 | 0.0 | 0.0 | 0.00 | 0.10 | 0.00 | 85 | 1013.6 |
| 20260510012549 | 52 | 245 | 0.0 | 0.0 | 0.00 | 0.10 | 0.00 | 84 | 1013.7 |
| 20260510012037 | 52 | 245 | 0.0 | 2.6 | 0.00 | 0.10 | 0.00 | 84 | 1013.7 |
| 20260510011542 | 52 | 222 | 0.9 | 3.5 | 0.00 | 0.10 | 0.00 | 84 | 1013.7 |
| 20260510011024 | 52 | 231 | 0.9 | 3.5 | 0.00 | 0.10 | 0.00 | 84 | 1013.9 |
| 20260510010520 | 53 | 251 | 0.9 | 4.3 | 0.00 | 0.10 | 0.00 | 83 | 1013.9 |
| 20260510010056 | 53 | 224 | 0.0 | 4.3 | 0.00 | 0.10 | 0.00 | 83 | 1013.9 |
| 20260510005527 | 53 | 226 | 3.5 | 6.1 | 0.00 | 0.10 | 0.00 | 82 | 1013.9 |
| 20260510005034 | 53 | 250 | 0.9 | 7.0 | 0.00 | 0.10 | 0.00 | 82 | 1013.9 |
| 20260510004521 | 53 | 217 | 3.5 | 7.0 | 0.00 | 0.10 | 0.00 | 82 | 1014.0 |
| 20260510004048 | 53 | 217 | 1.7 | 7.8 | 0.00 | 0.10 | 0.00 | 82 | 1013.9 |
| 20260510003533 | 53 | 217 | 2.6 | 7.8 | 0.00 | 0.10 | 0.00 | 82 | 1013.9 |
| 20260510003020 | 53 | 220 | 1.7 | 6.1 | 0.00 | 0.10 | 0.00 | 82 | 1014.0 |
| 20260510002523 | 53 | 177 | 1.7 | 7.0 | 0.00 | 0.10 | 0.00 | 82 | 1014.0 |
| 20260510002033 | 53 | 236 | 4.3 | 7.0 | 0.00 | 0.10 | 0.00 | 82 | 1014.1 |
| 20260510001606 | 53 | 208 | 2.6 | 7.8 | 0.00 | 0.10 | 0.00 | 83 | 1014.1 |
| 20260510001030 | 52 | 235 | 4.3 | 7.8 | 0.00 | 0.10 | 0.00 | 83 | 1014.1 |
| 20260510000546 | 52 | 211 | 0.9 | 5.2 | 0.00 | 0.10 | 0.00 | 82 | 1014.2 |
| 20260510000111 | 52 | 219 | 3.5 | 5.2 | 0.00 | 0.10 | 0.00 | 82 | 1014.2 |
| 20260509235544 | 52 | 231 | 2.6 | 4.3 | 0.00 | 0.10 | 0.00 | 82 | 1014.2 |
| 20260509235028 | 52 | 236 | 1.7 | 4.3 | 0.00 | 0.10 | 0.00 | 82 | 1014.2 |
| 20260509234539 | 52 | 239 | 2.6 | 4.3 | 0.00 | 0.10 | 0.00 | 81 | 1014.2 |
| 20260509234048 | 52 | 184 | 0.9 | 3.5 | 0.00 | 0.10 | 0.00 | 81 | 1014.2 |
| 20260509233531 | 52 | 158 | 0.9 | 3.5 | 0.00 | 0.10 | 0.00 | 81 | 1014.1 |
| 20260509233023 | 53 | 166 | 0.9 | 3.5 | 0.00 | 0.10 | 0.00 | 81 | 1014.2 |
| 20260509232554 | 53 | 204 | 0.9 | 3.5 | 0.00 | 0.10 | 0.00 | 81 | 1014.1 |
| 20260509232027 | 53 | 177 | 0.9 | 3.5 | 0.00 | 0.10 | 0.00 | 80 | 1014.2 |
| 20260509231533 | 53 | 190 | 0.9 | 3.5 | 0.00 | 0.10 | 0.00 | 80 | 1014.2 |
| 20260509231029 | 53 | 169 | 0.0 | 4.3 | 0.00 | 0.10 | 0.00 | 80 | 1014.2 |
| 20260509230543 | 53 | 210 | 1.7 | 5.2 | 0.00 | 0.10 | 0.00 | 80 | 1014.1 |
| 20260509230045 | 53 | 152 | 2.6 | 5.2 | 0.00 | 0.10 | 0.00 | 80 | 1014.1 |
| 20260509225537 | 53 | 187 | 1.7 | 4.3 | 0.00 | 0.10 | 0.00 | 81 | 1014.1 |
| 20260509225022 | 53 | 214 | 1.7 | 4.3 | 0.00 | 0.10 | 0.00 | 81 | 1014.1 |
| 20260509224603 | 53 | 151 | 0.9 | 4.3 | 0.00 | 0.10 | 0.00 | 81 | 1014.1 |
| 20260509224043 | 54 | 224 | 0.9 | 3.5 | 0.00 | 0.10 | 0.00 | 81 | 1014.1 |
| 20260509223532 | 54 | 212 | 0.0 | 5.2 | 0.00 | 0.10 | 0.00 | 81 | 1014.1 |
| 20260509223023 | 54 | 206 | 0.0 | 5.2 | 0.00 | 0.10 | 0.00 | 80 | 1014.0 |
| 20260509222527 | 54 | 205 | 0.9 | 5.2 | 0.00 | 0.10 | 0.00 | 80 | 1014.0 |
| 20260509222029 | 54 | 249 | 1.7 | 5.2 | 0.00 | 0.10 | 0.00 | 80 | 1014.0 |
| 20260509221528 | 54 | 129 | 2.6 | 7.0 | 0.00 | 0.10 | 0.00 | 80 | 1013.9 |
| 20260509221057 | 55 | 113 | 1.7 | 7.0 | 0.00 | 0.10 | 0.00 | 80 | 1013.8 |
| 20260509220521 | 55 | 174 | 1.7 | 6.1 | 0.00 | 0.10 | 0.00 | 80 | 1013.8 |
| 20260509220107 | 55 | 161 | 1.7 | 7.0 | 0.00 | 0.10 | 0.00 | 79 | 1013.8 |
| 20260509215547 | 55 | 236 | 2.6 | 5.2 | 0.00 | 0.10 | 0.10 | 79 | 1013.7 |
| 20260509215025 | 55 | 177 | 0.9 | 6.1 | 0.00 | 0.10 | 0.10 | 79 | 1013.7 |
| 20260509214538 | 55 | 214 | 2.6 | 6.1 | 0.00 | 0.10 | 0.10 | 79 | 1013.6 |
| 20260509214047 | 55 | 204 | 2.6 | 6.1 | 0.00 | 0.10 | 0.10 | 79 | 1013.6 |
| 20260509213529 | 55 | 174 | 3.5 | 8.7 | 0.00 | 0.10 | 0.10 | 80 | 1013.5 |
| 20260509213037 | 55 | 210 | 3.5 | 8.7 | 0.00 | 0.10 | 0.10 | 81 | 1013.5 |
| 20260509212543 | 55 | 167 | 1.7 | 6.1 | 0.00 | 0.10 | 0.10 | 82 | 1013.4 |
| 20260509212022 | 55 | 207 | 1.7 | 3.5 | 0.00 | 0.10 | 0.10 | 82 | 1013.3 |
| 20260509211545 | 55 | 191 | 0.0 | 5.2 | 0.00 | 0.10 | 0.10 | 83 | 1013.3 |